Location: Ailly
(50.0793°N, 1.9944°E)
Time: 18:57:51
(UTC+00:00)

Lacrosse 4 Rocket - Pass Details

Date: 15 January 2026
Orbit: 512 x 564 km, 68.0° (Epoch: 18 February)

Event Time Altitude Azimuth Distance (km) Brightness Sun altitude
Rises 06:59:17 0° 220° (SW) 2,653 4.6 -7.3°
Reaches altitude 10° 07:01:29 10° 223° (SW) 1,760 3.7 -6.9°
Maximum altitude 07:05:23 66° 306° (NW) 573 1.2 -6.4°
Drops below altitude 10° 07:09:16 10° 30° (NNE) 1,752 3.9 -5.8°
Sets 07:11:27 0° 33° (NNE) 2,639 4.9 -5.5°
